Regional Weather Roundup
Issued by NWS Kansas City/Pleasant Hill, MO

Home | Current Version | Previous Version | Graphics & Text | Print | Product List | Glossary Off
Versions: 1 2 3 4 5 6 7 8 9 10 11 12 13 14 15 16 17 18 19 20 21 22 23 24 25 26 27 28 29 30 31 32 33 34 35 36 37 38 39 40 41 42 43 44 45 46 47 48 49 50

563
ASUS43 KEAX 240810
RWREAX

WEATHER ROUNDUP FOR EASTERN KANSAS AND NORTHWEST MISSOURI
NATIONAL WEATHER SERVICE KANSAS CITY/PLEASANT HILL MO
200 AM CST FRI FEB 24 2017

KSZ040-057-103>105-MOZ028-029-037-043-240900-
...KANSAS CITY METROPOLITAN AREA...

CITY           SKY/WX    TMP DP  RH WIND       PRES   REMARKS
K.C. INTL      PTCLDY    42  39  89 NW8       29.46F
K.C. DOWNTOWN  CLOUDY    45  40  82 N9        29.45F
LEES SUMMIT    CLOUDY    44  43  96 N12       29.46R
OLATHE - IXD   PTCLDY    41  39  93 NW9       29.49R
OLATHE - OJC   CLOUDY    43  41  93 N9        29.46F
LAWRENCE       CLEAR     41  39  93 W9        29.50S

$$

MOZ001>008-011>017-020>025-030>033-038>040-044>046-053-054-240900-
...NORTHERN AND CENTRAL MISSOURI...

CITY           SKY/WX    TMP DP  RH WIND       PRES   REMARKS
ST. JOSEPH     MOCLDY    39  39 100 NW10      29.50R WCI  32
MOSBY          CLOUDY    45  41  87 N9        29.47R
WARRENSBURG    CLOUDY    48  45  87 NW20G28   29.45R
WHITEMAN AFB   CLOUDY    50  50 100 NW18G28   29.43R FOG
CLINTON        CLEAR     59  50  72 NW17G25   29.44R
SEDALIA        CLEAR     63  51  65 S13       29.38F
WARSAW         NOT AVBL
CHILLICOTHE      N/A     48  46  93 NW13G23   29.44R
KIRKSVILLE     CLOUDY    50  49  96 W9        29.37R

$$

MOZ041-047>049-056>058-063>065-088>090-097-240900-
...EASTERN AND SOUTHERN MISSOURI...

CITY           SKY/WX    TMP DP  RH WIND       PRES   REMARKS
ST. LOUIS INTL PTCLDY    66  53  63 SW10G21   29.49R
SPIRIT OF STL  PTCLDY    65  54  67 S3        29.46S
COLUMBIA       MOCLDY    61  55  81 SE9       29.41F
JEFFERSON CITY CLOUDY    61  54  77 E8        29.41F
ROLLA          LGT RAIN  64  55  72 S17       29.41F
OSAGE BEACH    CLOUDY    65  55  70 S6        29.43R
SPRINGFIELD    CLEAR     65  52  62 S13       29.45R
BRANSON        CLOUDY    66  54  63 S9        29.49S
JOPLIN         CLEAR     52  46  80 NW15      29.48R
WEST PLAINS    CLEAR     62  54  74 S9        29.54F

$$

IAZ060-094-KSZ022-034>040-054-083-096-NEZ052-066-093-240900-
...KANSAS...SOUTHEAST NEBRASKA AND IOWA...

CITY           SKY/WX    TMP DP  RH WIND       PRES   REMARKS
TOPEKA         CLOUDY    43  40  89 NW21G28   29.50F WCI  34
MANHATTAN      CLOUDY    37  33  85 NW9G18    29.62R WCI  30
EMPORIA        CLOUDY    41  38  89 NW18G24   29.56R WCI  32
CHANUTE        CLEAR     44  39  82 NW10      29.53R
WICHITA        CLOUDY    39  33  79 NW22G28   29.66R WCI  29
OMAHA          CLOUDY    34  29  82 N18G29    29.62R WCI  23
LINCOLN        CLOUDY    33  31  92 N21       29.64R WCI  21
FALLS CITY     CLOUDY    37  34  89 NW16G22   29.55R WCI  28
LAMONI         CLOUDY    41  40  96 N16       29.45F WCI  33
DES MOINES     DRIZZLE   37  34  89 NE22      29.51F WCI  26

$$





USA.gov is the U.S. government's official web portal to all federal, state and local government web resources and services.